Powrót do katalogu

STARLINK-36878

AktywnyŁącznośćSSO
NORAD 67899·PAYLOAD·🇺🇸 United States

Wystrzelony Feb 21, 2026 z Vandenberg Space Force Base

Loading…

Następne Przeloty (najbliższe 24 godziny)

TLE

ŚwieżeSource: CelesTrak SupGP

Epoka: Sep 14, 2026, 21:39 UTC

1 67899C 26035W   26257.90256944 -.00050151  00000+0 -15558-2 0  2572
2 67899  97.2848 189.8937 0001797  91.2070 109.7695 15.33483403    19

Śledź STARLINK-36878 w czasie rzeczywistym z AllMySat

Download on the App Store